Time,TemperatureF,DewpointF,PressureIn,WindDirection,WindDirectionDegrees,WindSpeedMPH,WindSpeedGustMPH,Humidity,HourlyPrecipIn,Conditions,Clouds,dailyrainin,SolarRadiationWatts/m^2,SoftwareType,DateUTC
2017-06-26 00:00:00,48.9,44.6,29.89,WNW,293,1.0,4.0,85,0.00,CLR,CLR,0.00,0.0,WeatherDisplay:10.37,2017-06-25 23:00:00,
2017-06-26 00:05:00,48.8,44.8,29.89,WNW,293,0.0,6.0,86,0.00,CLR,CLR,0.00,0.0,WeatherDisplay:10.37,2017-06-25 23:05:00,
2017-06-26 00:15:00,48.5,44.5,29.89,WNW,283,0.0,6.0,86,0.00,CLR,CLR,0.00,0.0,WeatherDisplay:10.37,2017-06-25 23:15:00,
2017-06-26 00:20:00,48.4,44.7,29.88,West,269,2.0,7.0,87,0.00,CLR,CLR,0.00,0.0,WeatherDisplay:10.37,2017-06-25 23:20:00,
2017-06-26 00:30:00,48.4,44.7,29.89,West,266,2.0,6.0,87,0.00,CLR,CLR,0.00,0.0,WeatherDisplay:10.37,2017-06-25 23:30:00,
2017-06-26 00:35:00,48.4,44.7,29.89,West,269,0.0,5.0,87,0.00,CLR,CLR,0.00,0.0,WeatherDisplay:10.37,2017-06-25 23:35:00,
2017-06-26 00:40:00,48.3,44.6,29.89,West,269,0.0,5.0,87,0.00,CLR,CLR,0.00,0.0,WeatherDisplay:10.37,2017-06-25 23:40:00,
2017-06-26 00:50:00,48.1,44.7,29.89,West,269,0.0,4.0,88,0.00,CLR,CLR,0.00,0.0,WeatherDisplay:10.37,2017-06-25 23:50:00,
2017-06-26 01:00:00,47.9,44.8,29.89,West,269,1.0,4.0,89,0.00,CLR,CLR,0.00,0.0,WeatherDisplay:10.37,2017-06-26 00:00:00,
2017-06-26 01:05:00,47.9,44.8,29.90,West,269,0.0,4.0,89,0.00,CLR,CLR,0.00,0.0,WeatherDisplay:10.37,2017-06-26 00:05:00,
2017-06-26 01:10:00,48.1,45.3,29.90,WNW,282,2.0,5.0,90,0.00,CLR,CLR,0.00,0.0,WeatherDisplay:10.37,2017-06-26 00:10:00,
2017-06-26 01:15:00,48.1,45.3,29.90,WNW,289,2.0,4.0,90,0.00,CLR,CLR,0.00,0.0,WeatherDisplay:10.37,2017-06-26 00:15:00,
2017-06-26 01:20:00,48.2,45.4,29.90,WNW,295,0.0,3.0,90,0.00,CLR,CLR,0.00,0.0,WeatherDisplay:10.37,2017-06-26 00:20:00,
2017-06-26 01:25:00,48.2,45.4,29.90,WNW,295,0.0,2.0,90,0.00,CLR,CLR,0.00,0.0,WeatherDisplay:10.37,2017-06-26 00:25:00,
2017-06-26 01:30:00,48.2,45.4,29.90,WNW,295,0.0,1.0,90,0.00,CLR,CLR,0.00,0.0,WeatherDisplay:10.37,2017-06-26 00:30:00,
2017-06-26 01:35:00,48.1,45.3,29.90,WNW,295,0.0,0.0,90,0.00,CLR,CLR,0.00,0.0,WeatherDisplay:10.37,2017-06-26 00:35:00,
2017-06-26 01:40:00,48.0,44.9,29.90,WNW,295,0.0,0.0,89,0.00,CLR,CLR,0.00,0.0,WeatherDisplay:10.37,2017-06-26 00:40:00,
2017-06-26 01:45:00,47.9,44.8,29.90,WNW,295,0.0,0.0,89,0.00,CLR,CLR,0.00,0.0,WeatherDisplay:10.37,2017-06-26 00:45:00,
2017-06-26 01:50:00,47.7,44.6,29.90,WNW,295,0.0,0.0,89,0.00,CLR,CLR,0.00,0.0,WeatherDisplay:10.37,2017-06-26 00:50:00,
2017-06-26 01:55:00,47.5,44.4,29.90,WNW,295,0.0,1.0,89,0.00,CLR,CLR,0.00,0.0,WeatherDisplay:10.37,2017-06-26 00:55:00,
2017-06-26 02:00:00,47.3,44.2,29.90,WNW,295,0.0,1.0,89,0.00,CLR,CLR,0.00,0.0,WeatherDisplay:10.37,2017-06-26 01:00:00,
2017-06-26 02:05:00,47.0,43.9,29.90,WNW,295,0.0,1.0,89,0.00,CLR,CLR,0.00,0.0,WeatherDisplay:10.37,2017-06-26 01:05:00,
2017-06-26 02:10:00,46.7,43.4,29.90,WNW,295,0.0,0.0,88,0.00,CLR,CLR,0.00,0.0,WeatherDisplay:10.37,2017-06-26 01:10:00,
2017-06-26 02:15:00,46.5,43.4,29.90,WNW,295,0.0,2.0,89,0.00,CLR,CLR,0.00,0.0,WeatherDisplay:10.37,2017-06-26 01:15:00,
2017-06-26 02:20:00,46.3,43.5,29.90,WNW,295,0.0,0.0,90,0.00,CLR,CLR,0.00,0.0,WeatherDisplay:10.37,2017-06-26 01:20:00,
2017-06-26 02:30:00,46.2,43.7,29.90,WNW,295,0.0,1.0,91,0.00,CLR,CLR,0.00,0.0,WeatherDisplay:10.37,2017-06-26 01:30:00,
2017-06-26 02:35:00,46.1,43.9,29.91,WNW,295,0.0,1.0,92,0.00,CLR,CLR,0.00,0.0,WeatherDisplay:10.37,2017-06-26 01:35:00,
2017-06-26 02:45:00,46.3,44.4,29.91,WNW,295,0.0,2.0,93,0.00,CLR,CLR,0.00,0.0,WeatherDisplay:10.37,2017-06-26 01:45:00,
2017-06-26 02:50:00,46.4,44.5,29.91,WNW,295,0.0,1.0,93,0.00,CLR,CLR,0.00,0.0,WeatherDisplay:10.37,2017-06-26 01:50:00,
2017-06-26 02:55:00,46.5,44.6,29.91,WNW,295,0.0,2.0,93,0.00,CLR,CLR,0.00,0.0,WeatherDisplay:10.37,2017-06-26 01:55:00,
2017-06-26 03:05:00,46.8,45.2,29.91,WNW,295,0.0,1.0,94,0.00,CLR,CLR,0.00,0.0,WeatherDisplay:10.37,2017-06-26 02:05:00,
2017-06-26 03:10:00,47.0,45.4,29.91,WNW,295,0.0,1.0,94,0.00,CLR,CLR,0.00,0.0,WeatherDisplay:10.37,2017-06-26 02:10:00,
2017-06-26 03:15:00,47.1,45.5,29.91,WNW,295,0.0,1.0,94,0.00,CLR,CLR,0.00,0.0,WeatherDisplay:10.37,2017-06-26 02:15:00,
2017-06-26 03:20:00,47.3,45.7,29.91,WNW,294,0.0,2.0,94,0.00,CLR,CLR,0.00,0.0,WeatherDisplay:10.37,2017-06-26 02:20:00,
2017-06-26 03:30:00,47.6,46.0,29.91,WNW,292,1.0,4.0,94,0.00,CLR,CLR,0.00,0.0,WeatherDisplay:10.37,2017-06-26 02:30:00,
2017-06-26 03:35:00,47.8,46.2,29.91,WNW,292,0.0,3.0,94,0.00,CLR,CLR,0.00,0.0,WeatherDisplay:10.37,2017-06-26 02:35:00,
2017-06-26 03:40:00,47.9,46.3,29.91,WNW,292,0.0,1.0,94,0.00,CLR,CLR,0.00,0.0,WeatherDisplay:10.37,2017-06-26 02:40:00,
2017-06-26 03:50:00,48.1,46.2,29.91,WNW,292,0.0,2.0,93,0.00,CLR,CLR,0.00,0.0,WeatherDisplay:10.37,2017-06-26 02:50:00,
2017-06-26 03:55:00,48.1,46.2,29.91,WNW,292,1.0,2.0,93,0.00,CLR,CLR,0.00,0.0,WeatherDisplay:10.37,2017-06-26 02:55:00,
2017-06-26 04:00:00,48.2,46.3,29.91,WNW,293,1.0,4.0,93,0.00,OVC,OVC,0.00,0.0,WeatherDisplay:10.37,2017-06-26 03:00:00,
2017-06-26 04:05:00,48.3,46.4,29.91,WNW,293,1.0,4.0,93,0.00,OVC,OVC,0.00,0.0,WeatherDisplay:10.37,2017-06-26 03:05:00,
2017-06-26 04:10:00,48.4,46.5,29.91,WNW,292,1.0,5.0,93,0.00,OVC,OVC,0.00,0.0,WeatherDisplay:10.37,2017-06-26 03:10:00,
2017-06-26 04:20:00,48.5,46.3,29.91,WNW,292,0.0,1.0,92,0.00,OVC,OVC,0.00,0.0,WeatherDisplay:10.37,2017-06-26 03:20:00,
2017-06-26 04:25:00,48.6,46.4,29.91,WNW,292,0.0,1.0,92,0.00,OVC,OVC,0.00,0.0,WeatherDisplay:10.37,2017-06-26 03:25:00,
2017-06-26 04:30:00,48.5,46.3,29.91,WNW,292,0.0,1.0,92,0.00,OVC,OVC,0.00,0.0,WeatherDisplay:10.37,2017-06-26 03:30:00,
2017-06-26 04:35:00,48.5,46.3,29.91,WNW,292,0.0,0.0,92,0.00,OVC,OVC,0.00,0.0,WeatherDisplay:10.37,2017-06-26 03:35:00,
2017-06-26 04:45:00,48.4,46.2,29.91,WNW,292,0.0,1.0,92,0.00,OVC,OVC,0.00,0.0,WeatherDisplay:10.37,2017-06-26 03:45:00,
2017-06-26 04:50:00,48.4,46.2,29.91,WNW,292,0.0,3.0,92,0.00,BKN,BKN,0.00,5.0,WeatherDisplay:10.37,2017-06-26 03:50:00,
2017-06-26 05:00:00,48.4,46.2,29.91,WNW,292,0.0,1.0,92,0.00,BKN,BKN,0.00,11.0,WeatherDisplay:10.37,2017-06-26 04:00:00,
2017-06-26 05:10:00,48.4,46.2,29.91,WNW,292,0.0,1.0,92,0.00,BKN,BKN,0.00,14.0,WeatherDisplay:10.37,2017-06-26 04:10:00,
2017-06-26 05:20:00,48.4,46.2,29.92,South,188,0.0,1.0,92,0.00,BKN,BKN,0.00,19.0,WeatherDisplay:10.37,2017-06-26 04:20:00,
2017-06-26 05:25:00,48.4,46.2,29.92,South,188,0.0,2.0,92,0.00,BKN,BKN,0.00,19.0,WeatherDisplay:10.37,2017-06-26 04:25:00,
2017-06-26 05:30:00,48.5,46.3,29.92,South,188,0.0,1.0,92,0.00,BKN,BKN,0.00,23.0,WeatherDisplay:10.37,2017-06-26 04:30:00,
2017-06-26 05:40:00,48.6,46.4,29.92,SSE,164,1.0,5.0,92,0.00,BKN,BKN,0.00,28.0,WeatherDisplay:10.37,2017-06-26 04:40:00,
2017-06-26 05:50:00,48.8,46.6,29.92,SSE,163,0.0,2.0,92,0.00,BKN,BKN,0.00,32.0,WeatherDisplay:10.37,2017-06-26 04:50:00,
2017-06-26 05:55:00,48.9,46.6,29.92,SSE,163,0.0,1.0,92,0.00,BKN,BKN,0.00,35.0,WeatherDisplay:10.37,2017-06-26 04:55:00,
2017-06-26 06:00:00,49.0,46.8,29.92,SSE,163,0.0,1.0,92,0.00,BKN,BKN,0.00,44.0,WeatherDisplay:10.37,2017-06-26 05:00:00,
2017-06-26 06:05:00,49.0,46.8,29.92,SSE,163,0.0,1.0,92,0.00,BKN,BKN,0.00,46.0,WeatherDisplay:10.37,2017-06-26 05:05:00,
2017-06-26 06:10:00,49.2,47.0,29.92,SSE,162,0.0,1.0,92,0.00,BKN,BKN,0.00,46.0,WeatherDisplay:10.37,2017-06-26 05:10:00,
2017-06-26 06:15:00,49.3,46.8,29.92,SSE,162,1.0,3.0,91,0.00,BKN,BKN,0.00,53.0,WeatherDisplay:10.37,2017-06-26 05:15:00,
2017-06-26 06:20:00,49.4,46.9,29.92,SSE,164,0.0,4.0,91,0.00,BKN,BKN,0.00,60.0,WeatherDisplay:10.37,2017-06-26 05:20:00,
2017-06-26 06:25:00,49.5,47.0,29.93,WSW,244,2.0,4.0,91,0.00,BKN,BKN,0.00,53.0,WeatherDisplay:10.37,2017-06-26 05:25:00,
2017-06-26 06:30:00,49.7,47.2,29.93,West,264,0.0,5.0,91,0.00,BKN,BKN,0.00,56.0,WeatherDisplay:10.37,2017-06-26 05:30:00,
2017-06-26 06:35:00,49.8,47.3,29.93,West,261,0.0,5.0,91,0.00,BKN,BKN,0.00,65.0,WeatherDisplay:10.37,2017-06-26 05:35:00,
2017-06-26 06:40:00,50.0,47.1,29.92,West,260,0.0,3.0,90,0.00,BKN,BKN,0.00,69.0,WeatherDisplay:10.37,2017-06-26 05:40:00,
2017-06-26 06:50:00,50.3,47.5,29.92,West,260,0.0,3.0,90,0.00,BKN,BKN,0.00,98.0,WeatherDisplay:10.37,2017-06-26 05:50:00,
2017-06-26 06:55:00,50.4,47.6,29.92,West,260,0.0,2.0,90,0.00,BKN,BKN,0.00,95.0,WeatherDisplay:10.37,2017-06-26 05:55:00,
2017-06-26 07:00:00,50.6,47.5,29.92,West,275,3.0,5.0,89,0.00,BKN,BKN,0.00,91.0,WeatherDisplay:10.37,2017-06-26 06:00:00,
2017-06-26 07:05:00,50.8,47.7,29.92,WNW,282,2.0,4.0,89,0.00,BKN,BKN,0.00,100.0,WeatherDisplay:10.37,2017-06-26 06:05:00,
2017-06-26 07:10:00,50.9,47.8,29.92,WNW,286,3.0,6.0,89,0.00,BKN,BKN,0.00,102.0,WeatherDisplay:10.37,2017-06-26 06:10:00,
2017-06-26 07:20:00,51.1,47.7,29.92,WNW,294,0.0,3.0,88,0.00,BKN,BKN,0.00,98.0,WeatherDisplay:10.37,2017-06-26 06:20:00,
2017-06-26 07:25:00,51.2,47.8,29.93,WNW,291,2.0,5.0,88,0.00,BKN,BKN,0.00,125.0,WeatherDisplay:10.37,2017-06-26 06:25:00,
2017-06-26 07:30:00,51.4,47.7,29.93,NW,307,3.0,7.0,87,0.00,BKN,BKN,0.00,137.0,WeatherDisplay:10.37,2017-06-26 06:30:00,
2017-06-26 07:35:00,51.6,48.2,29.93,NW,304,5.0,9.0,88,0.00,BKN,BKN,0.00,151.0,WeatherDisplay:10.37,2017-06-26 06:35:00,
2017-06-26 07:40:00,51.9,47.8,29.93,West,271,3.0,7.0,86,0.00,BKN,BKN,0.00,151.0,WeatherDisplay:10.37,2017-06-26 06:40:00,
2017-06-26 07:50:00,52.4,48.0,29.93,WNW,286,2.0,7.0,85,0.00,BKN,BKN,0.00,132.0,WeatherDisplay:10.37,2017-06-26 06:50:00,
2017-06-26 07:55:00,52.7,48.3,29.93,West,263,3.0,6.0,85,0.00,BKN,BKN,0.00,141.0,WeatherDisplay:10.37,2017-06-26 06:55:00,
2017-06-26 08:00:00,52.8,48.1,29.93,WSW,248,2.0,7.0,84,0.00,BKN,BKN,0.00,162.0,WeatherDisplay:10.37,2017-06-26 07:00:00,
2017-06-26 08:05:00,52.9,48.2,29.93,West,268,5.0,7.0,84,0.00,BKN,BKN,0.00,146.0,WeatherDisplay:10.37,2017-06-26 07:05:00,
2017-06-26 08:10:00,52.9,47.9,29.93,West,280,2.0,9.0,83,0.00,BKN,BKN,0.00,135.0,WeatherDisplay:10.37,2017-06-26 07:10:00,
2017-06-26 08:20:00,53.1,47.7,29.93,West,262,5.0,8.0,82,0.00,BKN,BKN,0.00,176.0,WeatherDisplay:10.37,2017-06-26 07:20:00,
2017-06-26 08:25:00,53.1,47.5,29.93,West,281,2.0,7.0,81,0.00,BKN,BKN,0.00,141.0,WeatherDisplay:10.37,2017-06-26 07:25:00,
2017-06-26 08:30:00,53.2,47.8,29.93,WNW,293,1.0,5.0,82,0.00,BKN,BKN,0.00,151.0,WeatherDisplay:10.37,2017-06-26 07:30:00,
2017-06-26 08:35:00,53.3,47.6,29.94,WNW,283,1.0,5.0,81,0.00,BKN,BKN,0.00,162.0,WeatherDisplay:10.37,2017-06-26 07:35:00,
2017-06-26 08:40:00,53.5,47.8,29.94,WNW,295,3.0,7.0,81,0.00,BKN,BKN,0.00,114.0,WeatherDisplay:10.37,2017-06-26 07:40:00,
2017-06-26 08:50:00,53.7,47.7,29.94,West,275,2.0,6.0,80,0.00,BKN,BKN,0.00,120.0,WeatherDisplay:10.37,2017-06-26 07:50:00,
2017-06-26 08:55:00,53.8,47.4,29.94,WSW,240,1.0,4.0,79,0.00,BKN,BKN,0.00,250.0,WeatherDisplay:10.37,2017-06-26 07:55:00,